Date,TemperatureHighF,TemperatureAvgF,TemperatureLowF,DewpointHighF,DewpointAvgF,DewpointLowF,HumidityHigh,HumidityAvg,HumidityLow,PressureMaxIn,PressureMinIn,WindSpeedMaxMPH,WindSpeedAvgMPH,GustSpeedMaxMPH,PrecipitationSumIn
2013-2-1,29.4,27.9,25.8,27.7,25.8,23.8,93,92,90,29.57,29.25,0,0,0,0.00
2013-2-2,47.8,31.5,27.6,41.4,29.1,25.6,94,91,75,29.26,28.92,9,1,9,0.02
2013-2-3,36.3,30.9,25.0,33.9,28.7,22.7,93,92,90,29.08,28.83,8,0,8,0.00
2013-2-4,28.9,23.9,20.4,26.9,21.6,17.9,93,91,90,29.18,29.08,0,0,0,0.00
2013-2-8,29.1,27.9,27.1,26.3,25.7,24.8,92,91,89,29.35,29.28,0,0,0,0.00
2013-2-9,48.7,34.8,28.0,39.8,31.1,26.0,93,87,66,29.28,28.55,15,2,15,0.02
2013-2-10,38.8,34.4,29.4,32.9,30.2,26.6,90,85,76,29.11,28.54,22,2,22,0.04
2013-2-11,43.1,24.3,16.5,27.2,16.5,9.3,89,73,46,29.35,29.11,16,2,16,0.00
2013-2-12,28.9,23.3,15.9,24.4,19.4,11.7,88,85,80,29.37,29.30,13,2,13,0.00
2013-2-13,33.6,25.9,18.3,29.2,22.5,15.2,90,87,82,29.42,29.19,0,0,0,0.00
2013-2-14,35.9,31.9,25.1,29.3,26.4,22.0,90,80,74,29.20,28.82,24,4,24,0.00
2013-2-15,38.8,24.0,6.4,28.2,18.9,1.8,90,81,62,29.54,29.11,13,1,13,0.00
2013-2-16,41.9,17.9,5.1,29.8,11.4,0.8,85,76,54,29.62,29.33,57,2,57,0.00
2013-2-17,27.1,22.9,20.4,22.8,19.2,16.3,88,85,83,29.40,29.19,57,4,57,0.00
2013-2-18,43.3,8.3,-7.6,27.7,2.0,-12.2,86,76,46,29.52,29.40,8,0,8,0.02
2013-2-19,17.0,10.8,-0.2,13.4,5.9,-5.2,86,80,73,29.47,28.86,61,4,61,0.00
2013-2-20,29.1,21.7,16.8,22.2,17.2,13.0,86,83,75,28.86,28.68,14,1,14,0.00
2013-2-21,32.7,25.2,19.5,27.5,21.3,16.2,88,85,80,28.87,28.72,6,0,6,0.00
2013-2-22,43.3,22.8,9.6,26.5,14.9,3.0,89,73,43,29.04,28.82,15,2,15,0.00
2013-2-23,27.1,19.8,10.5,21.4,14.9,5.2,86,81,72,28.98,28.76,20,3,20,0.00
2013-2-24,33.2,26.5,16.1,28.1,22.6,12.2,90,85,80,29.22,28.94,7,0,7,0.00
2013-2-25,37.9,23.1,4.6,31.0,18.4,0.5,91,82,74,29.25,29.11,18,3,18,0.00
2013-2-26,52.8,32.0,27.1,32.4,21.9,17.9,81,67,42,29.13,28.86,19,6,19,0.00
2013-2-27,48.0,29.9,19.9,30.4,20.7,11.9,82,69,48,28.88,28.79,11,2,11,0.00
2013-2-28,40.4,30.8,24.6,31.9,24.9,20.2,84,79,67,29.01,28.87,8,0,8,0.00